Flag for Portugal Weather past 2 weeks in Coimbra, Portugal

57 °F

Passing clouds.

Feels Like: 55 °F
Forecast: 34 / 58 °F
Wind: 8 mph from East

Location: Porto / Pedras Rubras

Current Time: Nov 30, 2015 at 12:20:25 PM

Latest Report: Nov 30, 2015 at 12:00 PM

Visibility: N/A

Pressure: 30.54 "Hg

Humidity: 63%

Dew point: 45 °F

Location of CoimbraLocation

Historic Weather in Coimbra — Graph


Coimbra temperature yesterday

Maximum temperature yesterday: 63 °F (at 1:30 PM)
Minimum temperature yesterday: 39 °F (at 1:30 AM)
Average temperature yesterday: 49 °F

Past Weeks' High & Low Weather Summary

High70 °F (Nov 15, 1:00 PM)100% (Nov 15, 9:00 PM)30.57 "Hg (Nov 15, 9:00 PM)
Low37 °F (Nov 23, 6:00 AM)47% (Nov 23, 11:30 AM)30.01 "Hg (Nov 22, 3:00 PM)
Average53 °F85%30.33 "Hg
* Reported Nov 15 11:00 AM — Nov 30 11:00 AM, Coimbra, Weather by CustomWeather, © 2015

Note: Actual official high and low records may vary slightly from our data, if they occured in-between our weather recording intervals... More about our weather records


Coimbra weather history for previous 24 hours

Time TempWeatherWind HumidityBarometerVisibility
11:00 AM
Mon, Nov 30
55 °FPassing clouds.7 mph63%30.57 "HgN/A
10:30 AM52 °FPassing clouds.10 mph67%30.57 "HgN/A
10:00 AM52 °FPassing clouds.12 mph67%30.54 "HgN/A
9:30 AM48 °FPassing clouds.9 mph71%30.57 "HgN/A
9:00 AM48 °FPassing clouds.7 mph71%30.54 "HgN/A
8:30 AM46 °FSunny.13 mph76%30.54 "Hg10 mi
8:00 AM45 °FSunny.13 mph81%30.54 "Hg10 mi
7:00 AM45 °FClear.13 mph81%30.51 "Hg10 mi
6:30 AM45 °FPassing clouds.10 mph81%30.51 "HgN/A
6:00 AM45 °FClear.12 mph81%30.51 "Hg10 mi
5:30 AM45 °FClear.9 mph81%30.51 "Hg10 mi
5:00 AM46 °FClear.12 mph76%30.51 "Hg10 mi
4:30 AM46 °FClear.13 mph76%30.51 "Hg10 mi
3:30 AM46 °FClear.13 mph82%30.51 "Hg10 mi
3:00 AM46 °FClear.12 mph82%30.54 "Hg10 mi
2:30 AM46 °FClear.12 mph82%30.51 "Hg10 mi
2:00 AM46 °FClear.12 mph82%30.51 "Hg10 mi
1:30 AM46 °FClear.12 mph82%30.51 "Hg10 mi
12:30 AM48 °FClear.8 mph82%30.51 "Hg10 mi
12:00 AM48 °FPassing clouds.6 mph82%30.54 "HgN/A
11:30 PM
Sun, Nov 29
48 °FPassing clouds.6 mph82%30.51 "HgN/A
11:00 PM48 °FClear.8 mph82%30.51 "Hg10 mi
10:30 PM48 °FPassing clouds.5 mph82%30.51 "HgN/A
10:00 PM48 °FClear.6 mph82%30.51 "Hg10 mi
9:30 PM46 °FClear.7 mph93%30.51 "Hg10 mi
9:00 PM46 °FClear.2 mph93%30.51 "Hg10 mi
8:30 PM46 °FPassing clouds.3 mph87%30.51 "HgN/A
8:00 PM46 °FClear.No wind87%30.51 "Hg10 mi
7:30 PM45 °FClear.2 mph93%30.51 "Hg10 mi
7:00 PM48 °FClear.2 mph87%30.51 "Hg10 mi
6:30 PM48 °FPassing clouds.5 mph87%30.51 "HgN/A
6:00 PM50 °FClear.5 mph88%30.48 "Hg10 mi
5:30 PM50 °FClear.6 mph88%30.48 "Hg10 mi
5:00 PM54 °FClear.5 mph82%30.48 "Hg4 mi
4:30 PM55 °FSunny.5 mph82%30.48 "Hg10 mi
4:00 PM57 °FSunny.6 mph77%30.48 "Hg10 mi
3:30 PM59 °FPassing clouds.5 mph68%30.48 "HgN/A
3:00 PM59 °FSunny.3 mph68%30.48 "Hg10 mi
2:30 PM59 °FSunny.5 mph68%30.48 "Hg10 mi
2:00 PM61 °FPassing clouds.6 mph63%30.48 "HgN/A
1:30 PM63 °FPassing clouds.5 mph52%30.48 "HgN/A
1:00 PM61 °FPassing clouds.3 mph55%30.48 "HgN/A
12:30 PM61 °FPassing clouds.7 mph55%30.51 "HgN/A
12:00 PM59 °FPassing clouds.8 mph59%30.51 "HgN/A
Weather by CustomWeather, © 2015

See weather overviewHow to use our weather pages